QPF
0.03 0.03 0.02 0.00 0.00 0.01 0.01 0.01 0.01 0.01 0.01 0.01 0.01 0.01 0.01 0.02 0.02 0.02 0.02 0.02 0.02 0.01 0.02 0.03 0.05 0.05 0.04 0.04 0.05 0.08 0.11 0.13 0.11 0.10 0.12 0.15 0.14 0.14 0.14 0.14 0.16 0.17 0.13
0.05 0.04 0.02 0.01 0.00 0.00 0.01 0.01 0.02 0.03 0.02 0.01 0.01 0.01 0.01 0.02 0.03 0.01 0.01 0.01 0.01 0.01 0.01 0.03 0.03 0.05 0.05 0.04 0.05 0.06 0.07 0.09 0.09 0.09 0.09 0.10 0.12 0.13 0.10 0.11 0.16 0.18 0.16
0.06 0.05 0.03 0.01 0.01 0.00 0.01 0.02 0.04 0.04 0.03 0.02 0.01 0.01 0.01 0.02 0.03 0.01 0.01 0.00 0.01 0.01 0.02 0.02 0.03 0.03 0.05 0.06 0.06 0.06 0.06 0.05 0.05 0.05 0.05 0.05 0.06 0.07 0.07 0.08 0.11 0.11 0.15
0.07 0.08 0.05 0.03 0.02 0.01 0.01 0.02 0.02 0.01 0.01 0.01 0.01 0.01 0.01 0.00 0.01 0.01 0.01 0.01 0.01 0.01 0.02 0.03 0.03 0.02 0.02 0.03 0.03 0.04 0.06 0.05 0.04 0.03 0.03 0.02 0.03 0.04 0.04 0.05 0.06 0.07 0.10
0.09 0.13 0.08 0.03 0.01 0.01 0.01 0.01 0.01 0.01 0.00 0.00 0.00 0.00 0.00 0.01 0.01 0.01 0.01 0.01 0.01 0.00 0.01 0.03 0.03 0.02 0.01 0.01 0.01 0.02 0.03 0.04 0.03 0.02 0.02 0.02 0.02 0.04 0.04 0.05 0.05 0.05 0.06
0.07 0.09 0.09 0.08 0.04 0.03 0.03 0.02 0.01 0.01 0.01 0.01 0.01 0.01 0.01 0.01 0.01 0.01 0.01 0.01 0.01 0.00 0.01 0.02 0.03 0.02 0.01 0.01 0.01 0.02 0.02 0.02 0.02 0.02 0.02 0.02 0.02 0.02 0.03 0.06 0.04 0.03 0.04
0.08 0.10 0.11 0.09 0.05 0.03 0.02 0.03 0.04 0.03 0.02 0.01 0.02 0.01 0.01 0.02 0.02 0.02 0.02 0.01 0.01 0.01 0.01 0.02 0.03 0.02 0.02 0.02 0.02 0.02 0.01 0.01 0.01 0.01 0.02 0.03 0.02 0.03 0.06 0.06 0.02 0.02 0.03
0.13 0.10 0.09 0.06 0.04 0.03 0.02 0.01 0.02 0.02 0.02 0.01 0.01 0.02 0.01 0.02 0.03 0.05 0.04 0.02 0.01 0.01 0.01 0.02 0.03 0.03 0.02 0.02 0.02 0.02 0.01 0.01 0.01 0.02 0.03 0.03 0.04 0.05 0.04 0.03 0.02 0.02 0.02
0.14 0.14 0.12 0.07 0.04 0.03 0.01 0.01 0.00 0.01 0.01 0.01 0.02 0.03 0.03 0.02 0.03 0.04 0.06 0.05 0.04 0.03 0.03 0.03 0.04 0.04 0.03 0.02 0.02 0.02 0.02 0.01 0.02 0.02 0.02 0.03 0.03 0.04 0.04 0.03 0.03 0.03 0.02
0.14 0.13 0.11 0.08 0.05 0.02 0.01 0.01 0.01 0.00 0.00 0.00 0.01 0.03 0.04 0.04 0.04 0.06 0.08 0.08 0.07 0.06 0.04 0.04 0.04 0.03 0.02 0.02 0.02 0.03 0.04 0.03 0.03 0.03 0.03 0.02 0.03 0.02 0.03 0.04 0.03 0.02 0.02
0.15 0.11 0.09 0.10 0.07 0.04 0.02 0.02 0.01 0.01 0.01 0.00 0.00 0.01 0.01 0.02 0.04 0.06 0.08 0.09 0.10 0.08 0.05 0.03 0.02 0.02 0.02 0.02 0.02 0.03 0.05 0.03 0.03 0.03 0.03 0.03 0.03 0.03 0.03 0.03 0.03 0.03 0.03
0.13 0.10 0.06 0.07 0.09 0.07 0.04 0.02 0.01 0.01 0.01 0.00 0.00 0.00 0.01 0.01 0.02 0.03 0.04 0.06 0.09 0.10 0.07 0.05 0.03 0.02 0.02 0.02 0.02 0.03 0.04 0.03 0.03 0.02 0.03 0.03 0.03 0.04 0.05 0.05 0.05 0.05 0.04
0.14 0.10 0.06 0.07 0.09 0.09 0.06 0.03 0.02 0.01 0.01 0.01 0.01 0.01 0.01 0.01 0.03 0.03 0.02 0.03 0.04 0.07 0.09 0.07 0.04 0.03 0.02 0.02 0.02 0.02 0.02 0.02 0.02 0.02 0.02 0.04 0.04 0.06 0.05 0.04 0.03 0.03 0.02
0.06 0.06 0.05 0.07 0.08 0.09 0.08 0.05 0.03 0.02 0.02 0.02 0.02 0.01 0.01 0.01 0.02 0.03 0.03 0.02 0.03 0.03 0.04 0.06 0.06 0.05 0.03 0.02 0.03 0.02 0.02 0.02 0.01 0.01 0.02 0.02 0.01 0.02 0.02 0.02 0.01 0.02 0.02
0.04 0.04 0.04 0.06 0.08 0.09 0.09 0.06 0.05 0.04 0.04 0.04 0.03 0.01 0.01 0.01 0.02 0.03 0.04 0.05 0.06 0.05 0.05 0.05 0.05 0.05 0.04 0.03 0.04 0.03 0.03 0.02 0.02 0.01 0.01 0.01 0.01 0.02 0.02 0.02 0.02 0.02 0.01
0.03 0.03 0.05 0.07 0.07 0.08 0.09 0.07 0.07 0.06 0.06 0.06 0.05 0.04 0.03 0.02 0.02 0.02 0.03 0.05 0.06 0.06 0.07 0.07 0.05 0.04 0.03 0.04 0.04 0.03 0.03 0.02 0.02 0.01 0.01 0.01 0.01 0.02 0.02 0.02 0.02 0.01 0.01
0.04 0.05 0.05 0.06 0.06 0.05 0.05 0.05 0.06 0.05 0.05 0.06 0.05 0.05 0.03 0.02 0.02 0.02 0.03 0.03 0.03 0.04 0.05 0.05 0.06 0.06 0.06 0.06 0.05 0.04 0.03 0.02 0.02 0.02 0.02 0.02 0.02 0.02 0.02 0.02 0.01 0.01 0.00
0.06 0.08 0.09 0.10 0.10 0.06 0.04 0.03 0.03 0.04 0.03 0.04 0.05 0.05 0.04 0.04 0.04 0.04 0.03 0.02 0.02 0.03 0.04 0.06 0.06 0.06 0.06 0.06 0.04 0.03 0.03 0.02 0.02 0.01 0.01 0.01 0.01 0.01 0.03 0.02 0.01 0.01 0.00
0.13 0.19 0.21 0.15 0.12 0.08 0.06 0.04 0.03 0.03 0.04 0.03 0.03 0.03 0.04 0.04 0.04 0.04 0.04 0.03 0.03 0.04 0.04 0.05 0.05 0.05 0.04 0.04 0.04 0.03 0.02 0.02 0.02 0.02 0.01 0.01 0.01 0.02 0.04 0.03 0.02 0.01 0.00
0.10 0.18 0.19 0.17 0.12 0.10 0.09 0.08 0.06 0.06 0.05 0.04 0.03 0.03 0.03 0.03 0.04 0.04 0.04 0.05 0.06 0.08 0.09 0.09 0.09 0.06 0.04 0.04 0.03 0.03 0.03 0.03 0.02 0.02 0.03 0.04 0.03 0.04 0.04 0.04 0.03 0.01 0.01
0.04 0.08 0.10 0.14 0.11 0.08 0.09 0.12 0.10 0.08 0.07 0.06 0.05 0.04 0.03 0.03 0.03 0.04 0.06 0.09 0.12 0.14 0.14 0.13 0.12 0.08 0.05 0.03 0.03 0.02 0.02 0.02 0.02 0.02 0.02 0.03 0.04 0.05 0.06 0.05 0.04 0.03 0.02
0.03 0.05 0.10 0.13 0.12 0.13 0.09 0.08 0.10 0.07 0.07 0.06 0.05 0.03 0.04 0.05 0.06 0.08 0.09 0.12 0.16 0.21 0.21 0.15 0.09 0.06 0.05 0.04 0.04 0.02 0.01 0.01 0.02 0.03 0.02 0.03 0.04 0.04 0.04 0.04 0.04 0.04 0.03
0.05 0.06 0.09 0.14 0.12 0.18 0.15 0.11 0.09 0.07 0.06 0.04 0.03 0.04 0.06 0.07 0.08 0.12 0.15 0.19 0.22 0.21 0.19 0.11 0.08 0.06 0.05 0.04 0.03 0.02 0.01 0.01 0.02 0.03 0.04 0.04 0.05 0.05 0.05 0.04 0.03 0.03 0.03
0.04 0.04 0.09 0.10 0.10 0.14 0.16 0.12 0.08 0.06 0.06 0.04 0.04 0.05 0.08 0.10 0.12 0.17 0.20 0.21 0.20 0.16 0.13 0.11 0.09 0.06 0.05 0.04 0.03 0.03 0.02 0.01 0.01 0.01 0.02 0.03 0.03 0.04 0.05 0.06 0.06 0.05 0.03
0.03 0.03 0.03 0.04 0.05 0.06 0.07 0.05 0.04 0.04 0.04 0.03 0.03 0.06 0.09 0.12 0.14 0.13 0.13 0.12 0.11 0.09 0.07 0.06 0.05 0.04 0.03 0.03 0.03 0.03 0.02 0.01 0.01 0.01 0.01 0.01 0.01 0.02 0.02 0.03 0.04 0.04 0.03
0.03 0.02 0.02 0.03 0.04 0.05 0.06 0.05 0.04 0.03 0.03 0.03 0.04 0.04 0.05 0.07 0.09 0.09 0.08 0.08 0.06 0.06 0.05 0.04 0.04 0.02 0.02 0.02 0.02 0.02 0.02 0.02 0.01 0.01 0.01 0.01 0.01 0.01 0.01 0.01 0.02 0.02 0.02
MSLP
1009.30 1009.42 1009.47 1009.41 1009.23 1008.96 1008.66 1008.38 1008.21 1008.17 1008.29 1008.53 1008.87 1009.23 1009.57 1009.84 1010.05 1010.21 1010.35 1010.54 1010.80 1011.16 1011.62 1012.16 1012.73 1013.29 1013.81 1014.27 1014.67 1015.04 1015.41 1015.81 1016.27 1016.78 1017.31 1017.83 1018.27 1018.59 1018.76 1018.76 1018.61 1018.36 1018.04
1009.50 1009.70 1009.82 1009.81 1009.65 1009.40 1009.09 1008.82 1008.65 1008.63 1008.78 1009.06 1009.43 1009.81 1010.16 1010.43 1010.61 1010.74 1010.85 1011.00 1011.24 1011.58 1012.03 1012.56 1013.12 1013.66 1014.14 1014.55 1014.91 1015.22 1015.55 1015.93 1016.38 1016.91 1017.49 1018.08 1018.61 1019.04 1019.31 1019.41 1019.34 1019.14 1018.85
1009.57 1009.86 1010.05 1010.09 1009.98 1009.73 1009.44 1009.17 1009.01 1009.02 1009.19 1009.51 1009.91 1010.33 1010.69 1010.97 1011.15 1011.26 1011.35 1011.48 1011.68 1012.00 1012.42 1012.91 1013.44 1013.94 1014.38 1014.74 1015.03 1015.29 1015.57 1015.90 1016.33 1016.86 1017.46 1018.10 1018.71 1019.23 1019.61 1019.82 1019.86 1019.76 1019.54
1009.54 1009.91 1010.18 1010.29 1010.22 1010.02 1009.75 1009.51 1009.38 1009.40 1009.61 1009.96 1010.39 1010.83 1011.22 1011.50 1011.68 1011.77 1011.84 1011.93 1012.10 1012.37 1012.75 1013.20 1013.68 1014.13 1014.52 1014.83 1015.06 1015.26 1015.47 1015.75 1016.14 1016.64 1017.24 1017.90 1018.55 1019.15 1019.62 1019.94 1020.11 1020.13 1020.02
1009.40 1009.84 1010.20 1010.39 1010.40 1010.27 1010.06 1009.86 1009.76 1009.83 1010.06 1010.43 1010.88 1011.33 1011.72 1012.01 1012.17 1012.24 1012.28 1012.33 1012.46 1012.69 1013.02 1013.42 1013.85 1014.24 1014.58 1014.83 1015.00 1015.14 1015.30 1015.52 1015.85 1016.31 1016.87 1017.51 1018.18 1018.81 1019.35 1019.77 1020.06 1020.21 1020.24
1009.18 1009.69 1010.13 1010.41 1010.52 1010.47 1010.33 1010.20 1010.16 1010.26 1010.51 1010.90 1011.35 1011.80 1012.18 1012.45 1012.59 1012.64 1012.65 1012.67 1012.75 1012.93 1013.21 1013.56 1013.94 1014.28 1014.57 1014.77 1014.90 1014.99 1015.09 1015.25 1015.52 1015.91 1016.41 1017.01 1017.65 1018.28 1018.86 1019.35 1019.73 1020.01 1020.19
1008.90 1009.46 1009.98 1010.35 1010.55 1010.60 1010.55 1010.50 1010.51 1010.65 1010.92 1011.31 1011.76 1012.19 1012.56 1012.80 1012.93 1012.96 1012.94 1012.93 1012.98 1013.12 1013.35 1013.65 1013.97 1014.28 1014.52 1014.68 1014.77 1014.82 1014.88 1014.98 1015.18 1015.50 1015.93 1016.46 1017.04 1017.65 1018.22 1018.75 1019.20 1019.59 1019.90
1008.59 1009.19 1009.77 1010.22 1010.52 1010.66 1010.70 1010.71 1010.78 1010.95 1011.24 1011.63 1012.06 1012.48 1012.82 1013.05 1013.16 1013.18 1013.15 1013.13 1013.15 1013.26 1013.45 1013.71 1013.99 1014.24 1014.45 1014.58 1014.64 1014.66 1014.68 1014.74 1014.89 1015.14 1015.49 1015.93 1016.44 1016.99 1017.54 1018.07 1018.56 1019.02 1019.44
1008.26 1008.90 1009.53 1010.05 1010.42 1010.63 1010.75 1010.83 1010.95 1011.15 1011.45 1011.83 1012.25 1012.65 1012.97 1013.20 1013.31 1013.33 1013.30 1013.28 1013.30 1013.39 1013.55 1013.77 1014.00 1014.22 1014.38 1014.48 1014.52 1014.52 1014.52 1014.55 1014.65 1014.84 1015.12 1015.49 1015.92 1016.40 1016.90 1017.41 1017.92 1018.43 1018.93
1007.95 1008.62 1009.29 1009.85 1010.27 1010.54 1010.72 1010.85 1011.01 1011.24 1011.56 1011.93 1012.34 1012.72 1013.04 1013.27 1013.39 1013.43 1013.43 1013.42 1013.45 1013.53 1013.66 1013.84 1014.03 1014.21 1014.34 1014.41 1014.43 1014.41 1014.40 1014.41 1014.49 1014.63 1014.86 1015.16 1015.52 1015.93 1016.38 1016.86 1017.36 1017.90 1018.46
1007.66 1008.36 1009.04 1009.62 1010.07 1010.38 1010.61 1010.79 1010.99 1011.25 1011.58 1011.96 1012.36 1012.74 1013.06 1013.30 1013.45 1013.52 1013.54 1013.56 1013.60 1013.68 1013.80 1013.95 1014.10 1014.23 1014.32 1014.36 1014.36 1014.34 1014.32 1014.33 1014.39 1014.52 1014.71 1014.97 1015.28 1015.63 1016.03 1016.47 1016.97 1017.51 1018.11
1007.37 1008.09 1008.77 1009.35 1009.81 1010.16 1010.42 1010.65 1010.89 1011.19 1011.54 1011.93 1012.34 1012.73 1013.06 1013.32 1013.49 1013.60 1013.66 1013.71 1013.77 1013.86 1013.96 1014.08 1014.20 1014.29 1014.34 1014.36 1014.34 1014.31 1014.30 1014.31 1014.38 1014.50 1014.68 1014.91 1015.18 1015.49 1015.86 1016.27 1016.75 1017.30 1017.92
1007.08 1007.79 1008.45 1009.02 1009.48 1009.84 1010.14 1010.42 1010.72 1011.07 1011.46 1011.88 1012.31 1012.71 1013.06 1013.33 1013.53 1013.67 1013.77 1013.85 1013.94 1014.03 1014.14 1014.24 1014.33 1014.39 1014.41 1014.40 1014.38 1014.35 1014.34 1014.37 1014.44 1014.57 1014.75 1014.97 1015.22 1015.51 1015.85 1016.24 1016.70 1017.24 1017.87
1006.75 1007.42 1008.03 1008.57 1009.02 1009.41 1009.75 1010.10 1010.47 1010.88 1011.33 1011.80 1012.26 1012.68 1013.04 1013.33 1013.55 1013.72 1013.85 1013.97 1014.08 1014.19 1014.31 1014.41 1014.48 1014.52 1014.53 1014.51 1014.48 1014.46 1014.46 1014.51 1014.60 1014.74 1014.92 1015.14 1015.38 1015.66 1015.97 1016.34 1016.78 1017.31 1017.92
1006.37 1006.95 1007.50 1007.99 1008.42 1008.83 1009.23 1009.66 1010.12 1010.62 1011.14 1011.66 1012.16 1012.61 1013.00 1013.30 1013.55 1013.74 1013.90 1014.05 1014.19 1014.33 1014.46 1014.57 1014.65 1014.70 1014.71 1014.70 1014.67 1014.66 1014.68 1014.74 1014.85 1015.01 1015.19 1015.41 1015.65 1015.91 1016.20 1016.55 1016.96 1017.46 1018.05
1005.93 1006.40 1006.85 1007.27 1007.69 1008.12 1008.59 1009.10 1009.66 1010.26 1010.87 1011.47 1012.02 1012.50 1012.91 1013.23 1013.50 1013.71 1013.90 1014.09 1014.26 1014.44 1014.60 1014.74 1014.84 1014.91 1014.94 1014.95 1014.95 1014.96 1015.00 1015.08 1015.20 1015.37 1015.56 1015.77 1016.00 1016.24 1016.51 1016.82 1017.20 1017.65 1018.20
1005.47 1005.80 1006.13 1006.48 1006.87 1007.32 1007.85 1008.45 1009.12 1009.82 1010.53 1011.20 1011.81 1012.33 1012.77 1013.12 1013.41 1013.65 1013.87 1014.09 1014.31 1014.53 1014.73 1014.91 1015.05 1015.15 1015.21 1015.25 1015.28 1015.32 1015.39 1015.49 1015.63 1015.81 1016.00 1016.21 1016.42 1016.64 1016.87 1017.15 1017.47 1017.87 1018.36
1005.07 1005.23 1005.43 1005.69 1006.04 1006.51 1007.09 1007.77 1008.53 1009.33 1010.12 1010.87 1011.53 1012.10 1012.57 1012.96 1013.28 1013.56 1013.82 1014.08 1014.35 1014.61 1014.86 1015.08 1015.26 1015.40 1015.51 1015.58 1015.65 1015.72 1015.82 1015.95 1016.11 1016.30 1016.50 1016.70 1016.89 1017.08 1017.29 1017.51 1017.78 1018.12 1018.53
1004.81 1004.81 1004.87 1005.04 1005.34 1005.80 1006.41 1007.14 1007.96 1008.83 1009.68 1010.48 1011.20 1011.82 1012.33 1012.76 1013.13 1013.46 1013.77 1014.08 1014.40 1014.71 1015.00 1015.26 1015.47 1015.65 1015.79 1015.90 1016.00 1016.11 1016.25 1016.41 1016.60 1016.80 1017.01 1017.21 1017.40 1017.57 1017.73 1017.92 1018.13 1018.40 1018.73
1004.80 1004.64 1004.57 1004.64 1004.88 1005.30 1005.90 1006.63 1007.47 1008.36 1009.24 1010.07 1010.83 1011.48 1012.05 1012.53 1012.96 1013.35 1013.72 1014.09 1014.46 1014.81 1015.13 1015.42 1015.66 1015.86 1016.02 1016.16 1016.29 1016.44 1016.61 1016.81 1017.03 1017.27 1017.50 1017.71 1017.90 1018.06 1018.21 1018.35 1018.52 1018.73 1018.99
1005.08 1004.79 1004.61 1004.59 1004.75 1005.10 1005.64 1006.33 1007.12 1007.98 1008.84 1009.66 1010.42 1011.10 1011.71 1012.25 1012.74 1013.21 1013.66 1014.09 1014.51 1014.90 1015.25 1015.56 1015.81 1016.01 1016.18 1016.33 1016.49 1016.67 1016.88 1017.12 1017.38 1017.66 1017.92 1018.16 1018.37 1018.54 1018.67 1018.80 1018.93 1019.09 1019.30
1005.67 1005.30 1005.03 1004.92 1004.98 1005.24 1005.66 1006.25 1006.94 1007.70 1008.48 1009.24 1009.97 1010.66 1011.29 1011.89 1012.46 1013.00 1013.53 1014.04 1014.51 1014.94 1015.32 1015.63 1015.88 1016.08 1016.25 1016.41 1016.58 1016.78 1017.03 1017.31 1017.63 1017.95 1018.26 1018.55 1018.78 1018.97 1019.11 1019.23 1019.34 1019.48 1019.65
1006.53 1006.12 1005.80 1005.60 1005.56 1005.69 1005.97 1006.39 1006.91 1007.51 1008.16 1008.82 1009.48 1010.14 1010.79 1011.43 1012.06 1012.69 1013.30 1013.88 1014.42 1014.89 1015.29 1015.61 1015.86 1016.05 1016.21 1016.38 1016.56 1016.79 1017.07 1017.40 1017.77 1018.15 1018.51 1018.84 1019.12 1019.33 1019.49 1019.62 1019.72 1019.84 1019.99
1007.58 1007.17 1006.82 1006.56 1006.41 1006.39 1006.49 1006.70 1007.01 1007.41 1007.86 1008.37 1008.93 1009.52 1010.16 1010.83 1011.52 1012.22 1012.92 1013.58 1014.18 1014.70 1015.13 1015.47 1015.73 1015.92 1016.09 1016.26 1016.47 1016.72 1017.04 1017.42 1017.83 1018.27 1018.68 1019.05 1019.37 1019.61 1019.79 1019.92 1020.03 1020.14 1020.27
1008.70 1008.32 1007.96 1007.65 1007.40 1007.23 1007.13 1007.12 1007.19 1007.34 1007.58 1007.90 1008.31 1008.81 1009.41 1010.08 1010.81 1011.58 1012.35 1013.09 1013.76 1014.35 1014.83 1015.20 1015.49 1015.71 1015.90 1016.09 1016.32 1016.61 1016.97 1017.39 1017.85 1018.32 1018.78 1019.19 1019.53 1019.80 1019.99 1020.12 1020.23 1020.34 1020.46
1009.74 1009.42 1009.08 1008.74 1008.40 1008.08 1007.80 1007.56 1007.38 1007.28 1007.29 1007.40 1007.65 1008.03 1008.56 1009.20 1009.95 1010.76 1011.60 1012.41 1013.16 1013.82 1014.37 1014.81 1015.14 1015.41 1015.65 1015.89 1016.16 1016.49 1016.89 1017.34 1017.84 1018.34 1018.82 1019.25 1019.60 1019.87 1020.07 1020.20 1020.31 1020.40 1020.52
Thickness
5817 5817 5817 5817 5814 5810 5807 5805 5802 5800 5798 5795 5792 5788 5786 5785 5785 5784 5783 5782 5780 5778 5777 5775 5773 5771 5769 5767 5766 5765 5762 5760 5760 5756 5752 5753 5755 5755 5754 5754 5753 5752 5751
5813 5813 5813 5814 5812 5809 5807 5805 5802 5800 5798 5796 5793 5790 5787 5784 5783 5782 5780 5779 5778 5776 5774 5771 5769 5768 5766 5763 5762 5761 5758 5756 5756 5751 5746 5741 5742 5747 5750 5750 5749 5749 5749
5811 5811 5811 5810 5810 5808 5806 5805 5802 5799 5797 5795 5792 5789 5785 5782 5779 5777 5776 5775 5775 5773 5771 5769 5767 5764 5762 5759 5759 5758 5755 5751 5751 5751 5745 5736 5732 5737 5742 5745 5746 5746 5746
5814 5814 5812 5810 5809 5808 5807 5804 5801 5798 5796 5793 5789 5784 5779 5774 5773 5773 5772 5772 5771 5770 5768 5766 5764 5761 5759 5757 5756 5755 5753 5751 5747 5747 5747 5745 5741 5734 5732 5737 5741 5743 5743
5816 5815 5814 5812 5810 5808 5805 5802 5799 5796 5794 5791 5787 5783 5778 5775 5773 5771 5769 5767 5767 5766 5765 5763 5761 5758 5756 5754 5753 5752 5750 5749 5746 5744 5743 5741 5739 5737 5731 5728 5732 5736 5738
5817 5815 5813 5811 5808 5806 5803 5800 5796 5793 5791 5788 5785 5781 5776 5773 5769 5766 5764 5762 5762 5761 5760 5759 5757 5755 5753 5751 5750 5749 5747 5746 5745 5743 5741 5738 5735 5732 5730 5727 5726 5728 5732
5814 5810 5807 5805 5805 5803 5800 5797 5793 5789 5787 5785 5782 5779 5776 5772 5767 5764 5761 5759 5757 5756 5755 5755 5753 5751 5750 5748 5747 5745 5743 5742 5741 5739 5738 5737 5736 5735 5731 5727 5724 5724 5726
5814 5811 5808 5806 5805 5802 5799 5795 5790 5786 5784 5782 5779 5776 5774 5770 5766 5763 5760 5757 5755 5754 5753 5751 5749 5747 5746 5745 5743 5741 5740 5739 5738 5737 5736 5734 5734 5734 5731 5727 5723 5718 5718
5813 5811 5808 5806 5803 5800 5797 5793 5788 5784 5782 5779 5776 5772 5770 5767 5764 5761 5758 5755 5753 5752 5749 5747 5745 5743 5742 5740 5738 5737 5736 5735 5734 5733 5732 5731 5731 5731 5730 5728 5725 5719 5712
5809 5808 5806 5804 5802 5799 5795 5792 5788 5783 5780 5778 5774 5771 5767 5764 5761 5758 5754 5752 5749 5748 5745 5743 5741 5739 5737 5736 5734 5733 5732 5731 5729 5729 5728 5727 5727 5726 5726 5724 5723 5720 5715
5807 5805 5803 5801 5799 5796 5792 5788 5784 5780 5777 5774 5770 5767 5763 5760 5757 5754 5751 5749 5746 5743 5741 5739 5737 5734 5732 5731 5729 5728 5727 5726 5724 5724 5723 5721 5721 5719 5719 5719 5717 5716 5713
5803 5801 5799 5796 5794 5790 5788 5784 5781 5777 5774 5771 5767 5763 5759 5756 5753 5750 5748 5745 5742 5739 5737 5734 5731 5729 5727 5725 5723 5722 5721 5720 5718 5717 5716 5715 5715 5713 5713 5712 5710 5709 5709
5796 5795 5793 5791 5789 5786 5783 5781 5778 5775 5771 5767 5762 5758 5755 5752 5749 5746 5743 5740 5737 5734 5732 5729 5726 5723 5722 5720 5718 5717 5715 5714 5713 5712 5710 5709 5708 5706 5705 5704 5703 5703 5703
5791 5789 5787 5785 5784 5782 5779 5777 5774 5771 5767 5762 5758 5753 5750 5748 5745 5742 5739 5736 5733 5729 5726 5723 5720 5718 5717 5715 5713 5711 5709 5708 5707 5706 5705 5704 5702 5700 5699 5699 5697 5696 5693
5785 5784 5782 5780 5778 5776 5773 5771 5769 5766 5762 5757 5753 5750 5747 5745 5741 5738 5734 5731 5727 5724 5721 5717 5715 5713 5712 5710 5708 5705 5704 5701 5700 5700 5699 5699 5698 5697 5695 5693 5690 5689 5686
5779 5778 5776 5774 5772 5770 5767 5764 5762 5759 5757 5752 5748 5745 5742 5739 5736 5733 5729 5725 5721 5718 5714 5711 5709 5707 5706 5705 5704 5701 5697 5695 5693 5692 5691 5691 5691 5690 5689 5688 5686 5684 5680
5774 5772 5771 5769 5767 5765 5763 5759 5757 5755 5751 5747 5743 5739 5736 5733 5731 5728 5723 5719 5715 5712 5707 5704 5702 5699 5699 5698 5697 5695 5691 5689 5687 5685 5683 5684 5683 5682 5680 5679 5679 5677 5677
5770 5769 5766 5763 5762 5761 5759 5755 5753 5750 5746 5741 5738 5735 5731 5727 5724 5720 5716 5713 5709 5705 5702 5698 5695 5692 5692 5691 5690 5688 5684 5682 5680 5678 5677 5675 5674 5674 5672 5671 5669 5667 5667
5768 5766 5764 5760 5755 5753 5752 5749 5745 5742 5739 5735 5731 5729 5725 5721 5717 5713 5710 5707 5703 5699 5695 5692 5689 5685 5684 5684 5682 5680 5676 5673 5672 5671 5669 5668 5666 5666 5665 5662 5659 5658 5659
5762 5759 5755 5752 5748 5746 5745 5741 5736 5733 5730 5728 5726 5723 5719 5715 5711 5708 5704 5701 5697 5693 5689 5685 5682 5679 5677 5676 5675 5674 5670 5666 5663 5662 5661 5661 5659 5658 5656 5653 5650 5649 5649
5754 5752 5748 5743 5740 5739 5736 5731 5727 5724 5723 5722 5719 5715 5712 5708 5705 5701 5697 5692 5688 5684 5681 5677 5674 5672 5670 5669 5668 5666 5662 5659 5655 5654 5652 5651 5651 5650 5648 5646 5643 5643 5642
5744 5742 5737 5734 5733 5730 5726 5720 5717 5717 5715 5713 5709 5706 5703 5701 5697 5692 5688 5684 5680 5675 5672 5668 5665 5663 5662 5661 5660 5658 5655 5652 5648 5645 5644 5644 5643 5642 5641 5638 5637 5637 5635
5733 5731 5728 5725 5722 5721 5717 5711 5709 5707 5705 5702 5698 5695 5693 5690 5688 5684 5680 5675 5672 5667 5663 5660 5657 5654 5653 5653 5652 5649 5647 5644 5640 5638 5638 5637 5635 5634 5632 5631 5630 5628 5625
5724 5721 5718 5714 5711 5710 5707 5704 5702 5699 5695 5691 5687 5685 5682 5679 5677 5674 5671 5667 5663 5659 5656 5653 5649 5647 5644 5643 5641 5639 5637 5635 5633 5630 5629 5628 5627 5625 5624 5623 5620 5619 5618
5713 5711 5708 5705 5702 5700 5698 5695 5692 5689 5685 5681 5678 5675 5672 5669 5666 5663 5661 5658 5656 5654 5650 5647 5643 5639 5636 5635 5634 5631 5628 5626 5623 5620 5618 5617 5615 5614 5613 5612 5611 5610 5610
5702 5699 5697 5694 5692 5690 5687 5685 5684 5681 5676 5672 5668 5666 5663 5660 5657 5654 5651 5650 5649 5647 5644 5640 5637 5634 5631 5628 5626 5623 5621 5619 5616 5612 5608 5606 5605 5604 5603 5602 5601 5601 5601